Погода в Болоте

Россия / Тульская область     54°09′39″N   36°19′34″E
темп.,
°C
ветер,
м/с
пор.,
м/с
влажн.,
%
обл.,
%
осадки,
мм/ч
давл.,
гПа
погр.,
м
20 мая, пт
пт2000:00+8ссз2294100 0.1 101653
03:00+7ссз279562 0.8 1016320
06:00+5с26950 0.0 1018229
09:00+9св34735 0.0 1018774
12:00+12с2349100 0.1 10181828
15:00+13ссз3347100 0.1 10171844
18:00+13ссз1252100 0.0 10161426
21:00+9в116699 0.0 101618
21 мая, сб
сб2100:00+6юв3878100 0.0 1015183
03:00+5вюв3772100 0.0 1014177
06:00+6вюв397287 0.0 1013254
09:00+10юв465981 0.0 1012682
12:00+13юв454920 0.0 10101775
15:00+14юв4445100 0.0 10092005
18:00+13юв4556100 0.0 10071539
21:00+9юв2370100 0.0 100676
22 мая, вс
вс2200:00+8вюв3679100 0.0 1004201
03:00+7вюв3987100 0.3 1002553
06:00+6в51094100 1.9 1001924
09:00+7всв51092100 4.9 1001955
12:00+9всв698082 0.9 10021101
15:00+11св585580 1.6 10021858
18:00+12св475181 0.0 10032063
21:00+6ссв227098 0.1 100530
23 мая, пн
пн2300:00+4с38698 0.0 1007142
03:00+1ссз36730 0.0 1008103
06:00+3сз26712 0.0 1009163
09:00+10сз45535 0.0 1008777
12:00+12сз564233 0.0 10072210
15:00+13сз67385 0.0 10072069
18:00+12сз575259 0.0 10071508
21:00+6сз34665 0.0 100963
24 мая, вт
вт2400:00+4зсз2270100 0.0 101025
03:00+4сз3871100 0.0 1011150
06:00+4сз3106698 0.0 1012280
09:00+10сз51054100 0.0 1012784
12:00+14ссз6942100 0.0 10111622
15:00+16ссз5104492 0.0 10112382
18:00+14ссз3867100 0.1 1012440
21:00+11сз117298 0.1 101412